Regional Weather Roundup
Issued by NWS

Home | Current Version | Previous Version | Text Only | Print | Product List | Glossary On
Versions: 1 2 3 4 5 6 7 8 9 10 11 12 13 14 15 16 17 18 19 20 21 22 23 24 25 26 27 28 29 30 31 32 33 34 35 36 37 38 39 40 41 42 43 44 45 46 47 48 49 50
000
ASUS43 KLMK 011410
RWRKY
KENTUCKY REGIONAL WEATHER ROUNDUP
NATIONAL WEATHER SERVICE LOUISVILLE KY
1000 AM EDT SAT AUG 01 2015

NOTE "FAIR" INDICATES FEW OR NO CLOUDS BELOW 12,000 FEET
WITH NO SIGNIFICANT WEATHER AND/OR OBSTRUCTIONS TO VISIBILITY.

KYZ001>023-026-027-061>063-070>075-011500-
WESTERN AND SOUTH CENTRAL KENTUCKY

CITY           SKY/WX    TMP DP  RH WIND       PRES   REMARKS
PADUCAH        SUNNY     81  69  67 N5        30.04R
HENDERSON      SUNNY     79  64  61 NE5       30.04R
OWENSBORO      SUNNY     80  65  60 N6        30.05R
HOPKINSVILLE   SUNNY     79  71  75 NW6       30.04F
BOWLING GREEN  SUNNY     81  68  64 VRB5      30.05S
GLASGOW        SUNNY    N/A N/A N/A CALM      30.04F
$$

KYZ024-025-028>034-038-045-046-053-011500-
NORTH CENTRAL KENTUCKY

CITY           SKY/WX    TMP DP  RH WIND       PRES   REMARKS
LOUISVILLE/SDF MOSUNNY   81  60  48 W7        30.02R
LOUISVILLE/LOU SUNNY     80  62  54 VRB3      30.03R
FORT KNOX      SUNNY     78  65  64 W5        30.02S
$$

KYZ035>037-039>044-047>052-055>060-089>105-011500-
NORTHEAST KENTUCKY

CITY           SKY/WX    TMP DP  RH WIND       PRES   REMARKS
LEXINGTON      MOSUNNY   76  64  66 W5        30.04R
COVINGTON      MOSUNNY   75  61  61 CALM      30.02R
FRANKFORT      MOSUNNY   75  62  64 NW3       30.02S
$$

KYZ054-064>069-076>088-106>120-011500-
SOUTHEAST KENTUCKY

CITY           SKY/WX    TMP DP  RH WIND       PRES   REMARKS
JACKSON        SUNNY     74  63  68 VRB3      30.05R
LONDON         SUNNY     75  63  66 SW3       30.06S
SOMERSET       SUNNY     73  64  73 CALM      30.06F
MIDDLESBORO    MOSUNNY   65  64  95 CALM      30.08F
MONTICELLO     SUNNY     77  68  73 CALM      30.08F
$$



USA.gov is the U.S. government's official web portal to all federal, state and local government web resources and services.